Time,TemperatureF,DewpointF,PressureIn,WindDirection,WindDirectionDegrees,WindSpeedMPH,WindSpeedGustMPH,Humidity,HourlyPrecipIn,Conditions,Clouds,dailyrainin,SoftwareType,DateUTC
2013-07-29 00:00:00,66.4,60.7,30.00,South,172,3.1,6.1,82,0.00,,,0.00,VWS V14.00,2013-07-29 04:00:00,
2013-07-29 00:02:00,68.2,65.3,29.99,SSE,162,0.0,5.0,90,0.00,,,0.00,VWS V14.00,2013-07-29 04:02:00,
2013-07-29 00:04:00,68.2,65.3,29.99,SSE,162,0.0,5.0,90,0.00,,,0.00,VWS V14.00,2013-07-29 04:04:00,
2013-07-29 00:05:00,67.9,65.3,29.98,SSE,155,0.0,5.3,91,0.00,,,0.00,VWS V14.00,2013-07-29 04:05:00,
2013-07-29 00:08:00,68.1,65.2,29.99,SSE,162,0.0,0.0,90,0.00,,,0.00,VWS V14.00,2013-07-29 04:08:00,
2013-07-29 00:10:00,66.4,60.7,30.00,SSE,153,3.2,5.9,82,0.00,,,0.00,VWS V14.00,2013-07-29 04:10:00,
2013-07-29 00:11:00,67.7,65.1,29.99,SSE,148,0.0,5.3,91,0.00,,,0.00,VWS V14.00,2013-07-29 04:11:00,
2013-07-29 00:13:00,68.1,65.2,29.99,SSE,162,0.0,0.0,91,0.00,,,0.00,VWS V14.00,2013-07-29 04:13:00,
2013-07-29 00:14:00,67.9,65.3,29.99,SSE,148,0.0,5.3,92,0.00,,,0.00,VWS V14.00,2013-07-29 04:14:00,
2013-07-29 00:20:00,68.1,65.3,29.98,SSE,162,0.0,0.0,91,0.00,,,0.00,VWS V14.00,2013-07-29 04:20:00,
2013-07-29 00:23:00,67.7,65.1,29.98,SSE,148,0.0,5.3,92,0.00,,,0.00,VWS V14.00,2013-07-29 04:23:00,
2013-07-29 00:26:00,68.1,65.3,29.98,SSE,162,0.0,0.0,91,0.00,,,0.00,VWS V14.00,2013-07-29 04:26:00,
2013-07-29 00:29:00,67.8,65.2,29.98,SSE,148,0.0,5.3,92,0.00,,,0.00,VWS V14.00,2013-07-29 04:29:00,
2013-07-29 00:30:00,66.0,60.4,29.99,ESE,120,0.0,5.8,82,0.00,,,0.00,VWS V14.00,2013-07-29 04:30:00,
2013-07-29 00:32:00,68.1,65.4,29.98,East,90,0.0,6.3,91,0.00,,,0.00,VWS V14.00,2013-07-29 04:32:00,
2013-07-29 00:35:00,67.7,65.1,29.98,SSE,149,0.0,5.3,92,0.00,,,0.00,VWS V14.00,2013-07-29 04:35:00,
2013-07-29 00:38:00,67.9,65.2,29.98,SSE,153,0.0,5.2,91,0.00,,,0.00,VWS V14.00,2013-07-29 04:38:00,
2013-07-29 00:40:00,65.8,60.4,29.99,SE,125,0.0,5.2,83,0.00,,,0.00,VWS V14.00,2013-07-29 04:40:00,
2013-07-29 00:41:00,67.4,64.8,29.97,SSE,166,0.0,5.3,92,0.00,,,0.00,VWS V14.00,2013-07-29 04:41:00,
2013-07-29 00:43:00,67.9,65.2,29.98,SSE,156,5.1,5.8,91,0.00,,,0.00,VWS V14.00,2013-07-29 04:43:00,
2013-07-29 00:44:00,67.4,64.8,29.98,SSE,166,0.0,5.3,92,0.00,,,0.00,VWS V14.00,2013-07-29 04:44:00,
2013-07-29 00:47:00,67.5,65.0,29.98,SSE,166,0.0,5.3,92,0.00,,,0.00,VWS V14.00,2013-07-29 04:47:00,
2013-07-29 00:50:00,67.9,65.3,29.98,SE,124,0.0,5.3,91,0.00,,,0.00,VWS V14.00,2013-07-29 04:50:00,
2013-07-29 00:53:00,67.4,64.9,29.98,SSE,166,0.0,5.3,92,0.00,,,0.00,VWS V14.00,2013-07-29 04:53:00,
2013-07-29 00:56:00,67.4,64.9,29.97,South,173,0.0,5.3,92,0.00,,,0.00,VWS V14.00,2013-07-29 04:56:00,
2013-07-29 00:59:00,67.4,65.0,29.98,South,173,0.0,5.3,92,0.00,,,0.00,VWS V14.00,2013-07-29 04:59:00,
2013-07-29 01:02:00,67.4,65.0,29.98,South,173,0.0,5.3,92,0.00,,,0.00,VWS V14.00,2013-07-29 05:02:00,
2013-07-29 01:05:00,67.2,64.8,29.98,South,173,0.0,5.3,92,0.00,,,0.00,VWS V14.00,2013-07-29 05:05:00,
2013-07-29 01:08:00,67.4,65.0,29.98,South,173,0.0,5.3,92,0.00,,,0.00,VWS V14.00,2013-07-29 05:08:00,
2013-07-29 01:11:00,67.3,64.9,29.98,South,173,0.0,5.3,92,0.00,,,0.00,VWS V14.00,2013-07-29 05:11:00,
2013-07-29 01:14:00,67.4,65.0,29.98,South,173,0.0,5.3,92,0.00,,,0.00,VWS V14.00,2013-07-29 05:14:00,
2013-07-29 01:17:00,67.3,64.9,29.98,South,173,0.0,5.3,92,0.00,,,0.00,VWS V14.00,2013-07-29 05:17:00,
2013-07-29 01:20:00,67.2,64.8,29.97,South,173,0.0,5.3,92,0.00,,,0.00,VWS V14.00,2013-07-29 05:20:00,
2013-07-29 01:23:00,67.2,64.8,29.97,South,173,0.0,5.3,92,0.00,,,0.00,VWS V14.00,2013-07-29 05:23:00,
2013-07-29 01:26:00,67.3,64.9,29.98,South,173,0.0,5.3,92,0.00,,,0.00,VWS V14.00,2013-07-29 05:26:00,
2013-07-29 01:29:00,67.4,65.0,29.98,South,173,0.0,5.3,92,0.00,,,0.00,VWS V14.00,2013-07-29 05:29:00,
2013-07-29 01:32:00,67.4,65.0,29.98,South,173,0.0,5.3,92,0.00,,,0.00,VWS V14.00,2013-07-29 05:32:00,
2013-07-29 01:36:00,67.3,64.9,29.98,South,173,0.0,5.3,92,0.00,,,0.00,VWS V14.00,2013-07-29 05:36:00,
2013-07-29 01:39:00,67.3,64.9,29.98,South,173,0.0,5.3,92,0.00,,,0.00,VWS V14.00,2013-07-29 05:39:00,
2013-07-29 01:42:00,67.3,64.9,29.98,South,173,0.0,5.3,92,0.00,,,0.00,VWS V14.00,2013-07-29 05:42:00,
2013-07-29 01:45:00,67.2,64.8,29.98,South,173,0.0,5.3,92,0.00,,,0.00,VWS V14.00,2013-07-29 05:45:00,
2013-07-29 01:48:00,67.4,65.0,29.98,South,173,0.0,5.3,92,0.00,,,0.00,VWS V14.00,2013-07-29 05:48:00,
2013-07-29 01:51:00,67.4,65.0,29.98,South,173,0.0,5.3,92,0.00,,,0.00,VWS V14.00,2013-07-29 05:51:00,
2013-07-29 01:54:00,67.4,65.0,29.98,South,173,0.0,5.3,92,0.00,,,0.00,VWS V14.00,2013-07-29 05:54:00,
2013-07-29 01:57:00,67.3,64.9,29.98,South,173,0.0,5.3,92,0.00,,,0.00,VWS V14.00,2013-07-29 05:57:00,
2013-07-29 02:00:00,67.4,65.0,29.98,South,173,0.0,5.3,92,0.00,,,0.00,VWS V14.00,2013-07-29 06:00:00,
2013-07-29 02:03:00,67.3,64.9,29.98,South,173,0.0,5.3,92,0.00,,,0.00,VWS V14.00,2013-07-29 06:03:00,
2013-07-29 02:06:00,67.3,64.9,29.98,South,173,0.0,5.3,92,0.00,,,0.00,VWS V14.00,2013-07-29 06:06:00,
2013-07-29 02:09:00,67.3,64.9,29.98,South,173,0.0,5.3,92,0.00,,,0.00,VWS V14.00,2013-07-29 06:09:00,
2013-07-29 02:12:00,67.2,64.8,29.99,South,173,0.0,5.3,92,0.00,,,0.00,VWS V14.00,2013-07-29 06:12:00,
2013-07-29 02:15:00,67.0,64.7,29.98,South,173,0.0,5.3,92,0.00,,,0.00,VWS V14.00,2013-07-29 06:15:00,
2013-07-29 02:18:00,67.2,64.9,29.98,South,173,0.0,5.3,92,0.00,,,0.00,VWS V14.00,2013-07-29 06:18:00,
2013-07-29 02:21:00,67.1,64.8,29.98,South,173,0.0,5.3,92,0.00,,,0.00,VWS V14.00,2013-07-29 06:21:00,
2013-07-29 02:24:00,67.1,64.8,29.98,South,173,0.0,5.3,92,0.00,,,0.00,VWS V14.00,2013-07-29 06:24:00,
2013-07-29 02:27:00,66.9,64.7,29.98,South,173,0.0,5.3,92,0.00,,,0.00,VWS V14.00,2013-07-29 06:27:00,
2013-07-29 02:30:00,67.0,64.8,29.98,South,173,0.0,5.3,92,0.00,,,0.00,VWS V14.00,2013-07-29 06:30:00,
2013-07-29 02:33:00,67.0,64.8,29.98,South,173,0.0,5.3,93,0.00,,,0.00,VWS V14.00,2013-07-29 06:33:00,
2013-07-29 02:36:00,67.2,65.0,29.98,South,173,0.0,5.3,93,0.00,,,0.00,VWS V14.00,2013-07-29 06:36:00,
2013-07-29 02:39:00,67.1,64.9,29.98,South,173,0.0,5.3,93,0.00,,,0.00,VWS V14.00,2013-07-29 06:39:00,
2013-07-29 02:42:00,66.9,64.7,29.98,South,173,0.0,5.3,93,0.00,,,0.00,VWS V14.00,2013-07-29 06:42:00,
2013-07-29 02:45:00,66.9,64.8,29.98,South,173,0.0,5.3,93,0.00,,,0.00,VWS V14.00,2013-07-29 06:45:00,
2013-07-29 02:48:00,66.9,64.8,29.99,South,173,0.0,5.3,93,0.00,,,0.00,VWS V14.00,2013-07-29 06:48:00,
2013-07-29 02:51:00,67.1,64.9,29.99,South,173,0.0,5.3,93,0.00,,,0.00,VWS V14.00,2013-07-29 06:51:00,
2013-07-29 02:54:00,67.0,64.8,30.00,South,173,0.0,5.3,93,0.00,,,0.00,VWS V14.00,2013-07-29 06:54:00,
2013-07-29 02:57:00,67.0,64.8,29.99,South,173,0.0,5.3,93,0.00,,,0.00,VWS V14.00,2013-07-29 06:57:00,
2013-07-29 03:00:00,66.9,64.8,29.99,South,173,0.0,5.3,93,0.00,,,0.00,VWS V14.00,2013-07-29 07:00:00,
2013-07-29 03:03:00,67.0,64.9,29.99,South,173,0.0,5.3,93,0.00,,,0.00,VWS V14.00,2013-07-29 07:03:00,
2013-07-29 03:06:00,66.9,64.8,29.99,South,173,0.0,5.3,93,0.00,,,0.00,VWS V14.00,2013-07-29 07:06:00,
2013-07-29 03:09:00,66.9,64.8,29.99,South,173,0.0,5.3,93,0.00,,,0.00,VWS V14.00,2013-07-29 07:09:00,
2013-07-29 03:12:00,67.0,64.9,29.99,South,173,0.0,5.3,93,0.00,,,0.00,VWS V14.00,2013-07-29 07:12:00,
2013-07-29 03:15:00,66.9,64.8,29.99,South,173,0.0,5.3,93,0.00,,,0.00,VWS V14.00,2013-07-29 07:15:00,
2013-07-29 03:18:00,66.9,64.8,29.99,South,173,0.0,5.3,93,0.00,,,0.00,VWS V14.00,2013-07-29 07:18:00,
2013-07-29 03:21:00,66.9,64.8,29.99,South,173,0.0,5.3,93,0.00,,,0.00,VWS V14.00,2013-07-29 07:21:00,
2013-07-29 03:24:00,66.9,64.8,29.99,South,173,0.0,5.3,93,0.00,,,0.00,VWS V14.00,2013-07-29 07:24:00,
2013-07-29 03:27:00,66.9,64.8,29.99,South,173,0.0,5.3,93,0.00,,,0.00,VWS V14.00,2013-07-29 07:27:00,
2013-07-29 03:30:00,67.0,64.9,30.00,South,173,0.0,5.3,93,0.00,,,0.00,VWS V14.00,2013-07-29 07:30:00,
2013-07-29 03:33:00,66.8,64.8,30.00,South,173,0.0,5.3,93,0.00,,,0.00,VWS V14.00,2013-07-29 07:33:00,
2013-07-29 03:36:00,66.7,64.7,30.00,South,173,0.0,5.3,93,0.00,,,0.00,VWS V14.00,2013-07-29 07:36:00,
2013-07-29 03:39:00,66.9,64.9,29.99,South,173,0.0,5.3,93,0.00,,,0.00,VWS V14.00,2013-07-29 07:39:00,
2013-07-29 03:45:00,67.0,65.0,30.00,South,173,0.0,5.3,93,0.00,,,0.00,VWS V14.00,2013-07-29 07:45:00,
2013-07-29 03:48:00,67.0,65.0,30.00,South,173,0.0,5.3,93,0.00,,,0.00,VWS V14.00,2013-07-29 07:48:00,
2013-07-29 03:51:00,66.9,64.8,30.00,South,173,0.0,5.3,93,0.00,,,0.00,VWS V14.00,2013-07-29 07:51:00,
2013-07-29 03:54:00,66.9,64.8,30.00,South,173,0.0,5.3,93,0.00,,,0.00,VWS V14.00,2013-07-29 07:54:00,
2013-07-29 04:00:00,67.0,64.9,30.00,South,173,0.0,5.3,93,0.00,,,0.00,VWS V14.00,2013-07-29 08:00:00,
2013-07-29 04:03:00,66.9,64.8,30.00,South,173,0.0,5.3,93,0.00,,,0.00,VWS V14.00,2013-07-29 08:03:00,
2013-07-29 04:06:00,66.9,64.8,30.00,South,173,0.0,5.3,93,0.00,,,0.00,VWS V14.00,2013-07-29 08:06:00,
2013-07-29 04:09:00,66.7,64.6,30.01,South,173,0.0,5.3,93,0.00,,,0.00,VWS V14.00,2013-07-29 08:09:00,
2013-07-29 04:12:00,66.7,64.6,30.00,South,173,0.0,5.3,93,0.00,,,0.00,VWS V14.00,2013-07-29 08:12:00,
2013-07-29 04:15:00,67.0,64.9,30.00,South,173,0.0,5.3,93,0.00,,,0.00,VWS V14.00,2013-07-29 08:15:00,
2013-07-29 04:27:00,66.8,64.8,30.01,South,173,0.0,5.3,93,0.00,,,0.00,VWS V14.00,2013-07-29 08:27:00,
2013-07-29 04:36:00,66.4,64.4,30.00,South,173,0.0,5.3,93,0.00,,,0.00,VWS V14.00,2013-07-29 08:36:00,
2013-07-29 04:39:00,66.7,64.7,30.00,South,173,0.0,5.3,93,0.00,,,0.00,VWS V14.00,2013-07-29 08:39:00,
2013-07-29 04:45:00,66.5,64.6,30.00,South,173,0.0,5.3,94,0.00,,,0.00,VWS V14.00,2013-07-29 08:45:00,
2013-07-29 04:48:00,66.4,64.5,30.00,South,173,0.0,5.3,94,0.00,,,0.00,VWS V14.00,2013-07-29 08:48:00,
2013-07-29 04:51:00,66.9,64.8,30.00,South,173,0.0,5.3,93,0.00,,,0.00,VWS V14.00,2013-07-29 08:51:00,
2013-07-29 04:52:00,66.6,64.7,30.00,South,173,0.0,5.3,94,0.00,,,0.00,VWS V14.00,2013-07-29 08:52:00,
2013-07-29 04:58:00,66.7,64.8,30.00,South,173,0.0,5.3,94,0.00,,,0.00,VWS V14.00,2013-07-29 08:58:00,
2013-07-29 05:01:00,66.4,64.5,30.00,South,173,0.0,5.3,94,0.00,,,0.00,VWS V14.00,2013-07-29 09:01:00,
2013-07-29 05:07:00,66.6,64.6,30.00,South,173,0.0,5.3,93,0.00,,,0.00,VWS V14.00,2013-07-29 09:07:00,
2013-07-29 05:12:00,66.8,64.8,30.00,South,173,0.0,5.3,93,0.00,,,0.00,VWS V14.00,2013-07-29 09:12:00,
2013-07-29 05:18:00,66.7,64.6,30.01,South,173,0.0,5.3,93,0.00,,,0.00,VWS V14.00,2013-07-29 09:18:00,
2013-07-29 05:19:00,66.2,64.2,30.01,South,173,0.0,5.3,93,0.00,,,0.00,VWS V14.00,2013-07-29 09:19:00,
2013-07-29 05:24:00,66.7,64.7,30.01,South,173,0.0,5.3,93,0.00,,,0.00,VWS V14.00,2013-07-29 09:24:00,
2013-07-29 05:29:00,66.1,64.2,30.01,South,173,0.0,5.3,94,0.00,,,0.00,VWS V14.00,2013-07-29 09:29:00,
2013-07-29 05:32:00,66.1,64.2,30.01,South,173,0.0,5.3,94,0.00,,,0.00,VWS V14.00,2013-07-29 09:32:00,
2013-07-29 05:36:00,66.6,64.6,30.00,South,173,0.0,5.3,93,0.00,,,0.00,VWS V14.00,2013-07-29 09:36:00,
2013-07-29 05:41:00,66.1,64.3,30.01,South,173,0.0,5.3,94,0.00,,,0.00,VWS V14.00,2013-07-29 09:41:00,
2013-07-29 05:48:00,66.4,64.5,30.00,South,173,0.0,5.3,94,0.00,,,0.00,VWS V14.00,2013-07-29 09:48:00,
2013-07-29 05:50:00,66.0,64.3,30.01,South,173,0.0,5.3,94,0.00,,,0.00,VWS V14.00,2013-07-29 09:50:00,
2013-07-29 05:56:00,66.0,64.3,30.02,South,173,0.0,5.3,94,0.00,,,0.00,VWS V14.00,2013-07-29 09:56:00,
2013-07-29 05:57:00,66.7,64.7,30.00,South,173,0.0,5.3,93,0.00,,,0.00,VWS V14.00,2013-07-29 09:57:00,
2013-07-29 06:04:00,66.4,64.4,30.00,South,173,0.0,5.3,93,0.00,,,0.00,VWS V14.00,2013-07-29 10:04:00,
2013-07-29 06:21:00,66.2,64.6,30.02,South,173,0.0,5.3,95,0.00,,,0.00,VWS V14.00,2013-07-29 10:21:00,
2013-07-29 06:24:00,66.1,64.6,30.02,South,173,0.0,5.3,95,0.00,,,0.00,VWS V14.00,2013-07-29 10:24:00,
2013-07-29 06:27:00,66.0,64.5,30.02,South,173,0.0,5.3,95,0.00,,,0.00,VWS V14.00,2013-07-29 10:27:00,
2013-07-29 06:29:00,65.9,64.1,30.01,South,173,0.0,5.3,94,0.00,,,0.00,VWS V14.00,2013-07-29 10:29:00,
2013-07-29 06:38:00,66.1,64.3,30.01,South,173,0.0,5.3,94,0.00,,,0.00,VWS V14.00,2013-07-29 10:38:00,
2013-07-29 06:47:00,66.0,64.3,30.02,South,173,0.0,5.3,94,0.00,,,0.00,VWS V14.00,2013-07-29 10:47:00,
2013-07-29 06:57:00,66.0,64.4,30.01,South,173,0.0,5.3,94,0.00,,,0.00,VWS V14.00,2013-07-29 10:57:00,
2013-07-29 07:03:00,66.0,64.4,30.02,South,173,0.0,5.3,94,0.00,,,0.00,VWS V14.00,2013-07-29 11:03:00,
2013-07-29 07:09:00,65.9,64.3,30.02,South,173,0.0,5.3,95,0.00,,,0.00,VWS V14.00,2013-07-29 11:09:00,
2013-07-29 07:24:00,66.0,64.5,30.02,South,173,0.0,5.3,95,0.00,,,0.00,VWS V14.00,2013-07-29 11:24:00,
2013-07-29 07:30:00,66.2,64.6,30.02,South,173,0.0,5.3,95,0.00,,,0.00,VWS V14.00,2013-07-29 11:30:00,
2013-07-29 07:36:00,66.2,64.6,30.02,South,173,0.0,5.3,95,0.00,,,0.00,VWS V14.00,2013-07-29 11:36:00,
2013-07-29 07:42:00,66.0,64.5,30.02,South,173,0.0,5.3,95,0.00,,,0.00,VWS V14.00,2013-07-29 11:42:00,
2013-07-29 07:48:00,66.2,64.7,30.02,South,173,0.0,5.3,95,0.00,,,0.00,VWS V14.00,2013-07-29 11:48:00,
2013-07-29 07:58:00,66.2,64.7,30.02,South,173,0.0,5.3,95,0.00,,,0.00,VWS V14.00,2013-07-29 11:58:00,
2013-07-29 08:07:00,66.4,65.0,30.02,South,173,0.0,5.3,95,0.00,,,0.00,VWS V14.00,2013-07-29 12:07:00,
2013-07-29 08:17:00,66.7,65.1,30.02,South,173,0.0,5.3,95,0.00,,,0.00,VWS V14.00,2013-07-29 12:17:00,
2013-07-29 08:23:00,66.9,65.2,30.02,South,173,0.0,5.3,94,0.00,,,0.00,VWS V14.00,2013-07-29 12:23:00,
2013-07-29 08:32:00,67.0,65.4,30.03,South,173,0.0,5.3,95,0.00,,,0.00,VWS V14.00,2013-07-29 12:32:00,
2013-07-29 08:38:00,67.0,65.4,30.03,South,173,0.0,5.3,95,0.00,,,0.00,VWS V14.00,2013-07-29 12:38:00,
2013-07-29 08:44:00,67.3,65.7,30.03,South,173,0.0,5.3,94,0.00,,,0.00,VWS V14.00,2013-07-29 12:44:00,
2013-07-29 08:54:00,67.4,65.7,30.03,South,173,0.0,5.3,94,0.00,,,0.00,VWS V14.00,2013-07-29 12:54:00,
2013-07-29 09:03:00,67.8,66.0,30.03,South,173,0.0,5.3,94,0.00,,,0.00,VWS V14.00,2013-07-29 13:03:00,
2013-07-29 09:09:00,67.9,66.1,30.04,South,173,0.0,5.3,94,0.00,,,0.00,VWS V14.00,2013-07-29 13:09:00,
2013-07-29 09:19:00,68.2,66.3,30.03,South,173,0.0,5.3,94,0.00,,,0.00,VWS V14.00,2013-07-29 13:19:00,
2013-07-29 09:25:00,68.4,66.4,30.04,South,173,0.0,5.3,93,0.00,,,0.00,VWS V14.00,2013-07-29 13:25:00,
2013-07-29 09:35:00,69.2,66.9,30.04,South,173,0.0,5.3,92,0.00,,,0.00,VWS V14.00,2013-07-29 13:35:00,
2013-07-29 09:41:00,69.4,66.8,30.04,South,173,0.0,5.3,92,0.00,,,0.00,VWS V14.00,2013-07-29 13:41:00,
2013-07-29 09:50:00,69.6,66.5,30.04,South,173,0.0,5.3,90,0.00,,,0.00,VWS V14.00,2013-07-29 13:50:00,
2013-07-29 09:56:00,69.4,66.2,30.04,South,173,0.0,5.3,89,0.00,,,0.00,VWS V14.00,2013-07-29 13:56:00,
2013-07-29 10:02:00,69.3,65.9,30.04,South,173,0.0,5.3,89,0.00,,,0.00,VWS V14.00,2013-07-29 14:02:00,
2013-07-29 10:12:00,68.8,65.5,30.04,South,173,0.0,5.3,89,0.00,,,0.00,VWS V14.00,2013-07-29 14:12:00,
2013-07-29 10:18:00,68.6,65.6,30.04,South,173,0.0,5.3,90,0.00,,,0.00,VWS V14.00,2013-07-29 14:18:00,
2013-07-29 10:28:00,69.4,66.2,30.04,South,173,0.0,5.3,90,0.00,,,0.00,VWS V14.00,2013-07-29 14:28:00,
2013-07-29 10:34:00,69.9,66.4,30.04,South,173,0.0,5.3,89,0.00,,,0.00,VWS V14.00,2013-07-29 14:34:00,
2013-07-29 10:40:00,70.5,66.4,30.04,South,173,0.0,5.3,87,0.00,,,0.00,VWS V14.00,2013-07-29 14:40:00,
2013-07-29 10:46:00,71.2,66.9,30.05,South,173,0.0,5.3,86,0.00,,,0.00,VWS V14.00,2013-07-29 14:46:00,
2013-07-29 10:52:00,72.0,66.9,30.05,South,173,0.0,5.3,84,0.00,,,0.00,VWS V14.00,2013-07-29 14:52:00,
2013-07-29 10:58:00,71.9,66.2,30.04,South,173,0.0,5.3,82,0.00,,,0.00,VWS V14.00,2013-07-29 14:58:00,
2013-07-29 11:04:00,71.8,65.6,30.05,South,173,0.0,5.3,81,0.00,,,0.00,VWS V14.00,2013-07-29 15:04:00,
2013-07-29 11:11:00,71.8,65.8,30.05,South,173,0.0,5.3,81,0.00,,,0.00,VWS V14.00,2013-07-29 15:11:00,
2013-07-29 11:17:00,71.9,65.9,30.05,South,173,0.0,5.3,82,0.00,,,0.00,VWS V14.00,2013-07-29 15:17:00,
2013-07-29 11:26:00,73.2,65.7,30.05,South,173,0.0,5.3,77,0.00,,,0.00,VWS V14.00,2013-07-29 15:26:00,
2013-07-29 11:32:00,73.4,64.8,30.04,South,173,0.0,5.3,75,0.00,,,0.00,VWS V14.00,2013-07-29 15:32:00,
2013-07-29 11:38:00,73.7,64.7,30.04,South,173,0.0,5.3,74,0.00,,,0.00,VWS V14.00,2013-07-29 15:38:00,
2013-07-29 11:44:00,73.8,64.2,30.04,South,173,0.0,5.3,72,0.00,,,0.00,VWS V14.00,2013-07-29 15:44:00,
2013-07-29 11:50:00,74.3,63.8,30.04,NNW,329,0.0,5.3,70,0.00,,,0.00,VWS V14.00,2013-07-29 15:50:00,
2013-07-29 11:56:00,74.9,63.5,30.04,North,3,0.0,5.3,68,0.00,,,0.00,VWS V14.00,2013-07-29 15:56:00,
2013-07-29 12:02:00,74.8,63.2,30.04,North,3,0.0,5.3,67,0.00,,,0.00,VWS V14.00,2013-07-29 16:02:00,
2013-07-29 12:09:00,74.7,62.6,30.04,North,3,0.0,5.3,66,0.00,,,0.00,VWS V14.00,2013-07-29 16:09:00,
2013-07-29 12:15:00,75.2,62.6,30.04,North,354,0.0,5.3,65,0.00,,,0.00,VWS V14.00,2013-07-29 16:15:00,
2013-07-29 12:21:00,76.1,62.9,30.03,North,354,0.0,5.3,64,0.00,,,0.00,VWS V14.00,2013-07-29 16:21:00,
2013-07-29 12:27:00,76.3,60.4,30.03,NNW,347,3.1,5.3,58,0.00,,,0.00,VWS V14.00,2013-07-29 16:27:00,
2013-07-29 12:36:00,77.2,60.7,30.03,NNE,17,3.4,5.3,57,0.00,,,0.00,VWS V14.00,2013-07-29 16:36:00,
2013-07-29 12:43:00,77.7,58.9,30.04,NE,37,3.0,5.5,52,0.00,,,0.00,VWS V14.00,2013-07-29 16:43:00,
2013-07-29 12:49:00,78.0,57.9,30.04,North,356,0.0,5.5,50,0.00,,,0.00,VWS V14.00,2013-07-29 16:49:00,
2013-07-29 12:55:00,78.4,58.1,30.04,North,356,0.0,5.5,50,0.00,,,0.00,VWS V14.00,2013-07-29 16:55:00,
2013-07-29 13:01:00,78.3,58.2,30.03,NNW,347,0.0,5.5,50,0.00,,,0.00,VWS V14.00,2013-07-29 17:01:00,
2013-07-29 13:07:00,78.2,58.5,30.03,NNW,343,4.2,5.5,51,0.00,,,0.00,VWS V14.00,2013-07-29 17:07:00,
2013-07-29 13:13:00,78.5,57.3,30.03,NNW,329,3.2,5.5,48,0.00,,,0.00,VWS V14.00,2013-07-29 17:13:00,
2013-07-29 13:20:00,79.3,58.1,30.03,NNW,333,0.0,5.5,48,0.00,,,0.00,VWS V14.00,2013-07-29 17:20:00,
2013-07-29 13:26:00,79.8,59.9,30.03,North,352,3.0,5.6,51,0.00,,,0.00,VWS V14.00,2013-07-29 17:26:00,
2013-07-29 13:32:00,80.3,57.5,30.03,NNW,347,0.0,5.6,46,0.00,,,0.00,VWS V14.00,2013-07-29 17:32:00,
2013-07-29 13:38:00,80.5,56.4,30.04,NW,315,4.5,6.0,44,0.00,,,0.00,VWS V14.00,2013-07-29 17:38:00,
2013-07-29 13:44:00,80.6,55.5,30.03,NW,305,3.2,6.0,42,0.00,,,0.00,VWS V14.00,2013-07-29 17:44:00,
2013-07-29 13:50:00,80.6,55.5,30.03,NW,322,3.0,6.0,42,0.00,,,0.00,VWS V14.00,2013-07-29 17:50:00,
2013-07-29 13:56:00,80.9,56.4,30.03,NNW,328,4.3,6.3,43,0.00,,,0.00,VWS V14.00,2013-07-29 17:56:00,
2013-07-29 14:02:00,80.8,55.1,30.04,WNW,284,0.0,6.3,41,0.00,,,0.00,VWS V14.00,2013-07-29 18:02:00,
2013-07-29 14:12:00,80.4,56.5,30.04,NNE,17,3.3,6.3,44,0.00,,,0.00,VWS V14.00,2013-07-29 18:12:00,
2013-07-29 14:21:00,80.7,56.4,30.04,NW,321,0.0,6.6,43,0.00,,,0.00,VWS V14.00,2013-07-29 18:21:00,
2013-07-29 14:27:00,80.9,56.0,30.04,WNW,291,0.0,6.6,42,0.00,,,0.00,VWS V14.00,2013-07-29 18:27:00,
2013-07-29 14:33:00,81.4,57.5,30.04,NNE,15,0.0,6.6,44,0.00,,,0.00,VWS V14.00,2013-07-29 18:33:00,
2013-07-29 14:43:00,81.5,55.2,30.04,NW,325,4.6,8.5,40,0.00,,,0.00,VWS V14.00,2013-07-29 18:43:00,
2013-07-29 14:49:00,81.5,54.6,30.04,NW,315,0.0,8.5,40,0.00,,,0.00,VWS V14.00,2013-07-29 18:49:00,
2013-07-29 14:58:00,80.9,55.7,30.03,North,356,0.0,8.5,42,0.00,,,0.00,VWS V14.00,2013-07-29 18:58:00,
2013-07-29 15:04:00,80.5,56.1,30.03,North,0,0.0,8.5,43,0.00,,,0.00,VWS V14.00,2013-07-29 19:04:00,
2013-07-29 15:10:00,80.3,54.6,30.03,NNW,328,4.5,8.5,41,0.00,,,0.00,VWS V14.00,2013-07-29 19:10:00,
2013-07-29 15:20:00,79.8,53.6,30.03,NNW,330,5.3,8.5,40,0.00,,,0.00,VWS V14.00,2013-07-29 19:20:00,
2013-07-29 15:29:00,80.1,53.1,30.03,NW,326,4.3,8.5,39,0.00,,,0.00,VWS V14.00,2013-07-29 19:29:00,
2013-07-29 15:35:00,79.5,52.1,30.03,NNW,333,2.9,8.5,39,0.00,,,0.00,VWS V14.00,2013-07-29 19:35:00,
2013-07-29 15:45:00,79.2,53.7,30.03,NNW,333,1.6,8.5,41,0.00,,,0.00,VWS V14.00,2013-07-29 19:45:00,
2013-07-29 15:54:00,80.1,53.6,30.03,NNW,345,4.3,8.5,40,0.00,,,0.00,VWS V14.00,2013-07-29 19:54:00,
2013-07-29 16:04:00,79.9,54.0,30.03,WNW,300,0.0,8.5,41,0.00,,,0.00,VWS V14.00,2013-07-29 20:04:00,
2013-07-29 16:10:00,79.3,53.5,30.03,NW,311,0.0,8.5,41,0.00,,,0.00,VWS V14.00,2013-07-29 20:10:00,
2013-07-29 16:16:00,78.8,53.5,30.03,NW,318,4.8,8.5,42,0.00,,,0.00,VWS V14.00,2013-07-29 20:16:00,
2013-07-29 16:22:00,78.0,52.9,30.04,NNW,329,2.7,8.5,42,0.00,,,0.00,VWS V14.00,2013-07-29 20:22:00,
2013-07-29 16:28:00,77.3,53.0,30.04,North,6,0.0,8.5,43,0.00,,,0.00,VWS V14.00,2013-07-29 20:28:00,
2013-07-29 16:34:00,76.8,54.1,30.03,NNE,20,4.6,8.5,45,0.00,,,0.00,VWS V14.00,2013-07-29 20:34:00,
2013-07-29 16:40:00,76.4,53.1,30.03,North,3,4.3,8.5,44,0.00,,,0.00,VWS V14.00,2013-07-29 20:40:00,
2013-07-29 16:46:00,77.1,54.5,30.03,NNW,339,5.7,8.5,46,0.00,,,0.00,VWS V14.00,2013-07-29 20:46:00,
2013-07-29 16:52:00,77.7,53.4,30.03,NNE,13,6.5,8.5,43,0.00,,,0.00,VWS V14.00,2013-07-29 20:52:00,
2013-07-29 16:58:00,78.1,52.4,30.03,North,349,5.4,8.5,41,0.00,,,0.00,VWS V14.00,2013-07-29 20:58:00,
2013-07-29 17:04:00,78.3,52.4,30.03,NNE,13,2.7,8.5,41,0.00,,,0.00,VWS V14.00,2013-07-29 21:04:00,
2013-07-29 17:10:00,78.4,53.3,30.03,NNW,339,0.0,8.5,42,0.00,,,0.00,VWS V14.00,2013-07-29 21:10:00,
2013-07-29 17:16:00,78.8,53.1,30.03,NW,314,0.0,8.5,41,0.00,,,0.00,VWS V14.00,2013-07-29 21:16:00,
2013-07-29 17:22:00,78.7,52.7,30.03,NNW,338,4.7,8.5,40,0.00,,,0.00,VWS V14.00,2013-07-29 21:22:00,
2013-07-29 17:28:00,79.9,54.0,30.03,North,359,3.4,8.5,41,0.00,,,0.00,VWS V14.00,2013-07-29 21:28:00,
2013-07-29 17:34:00,81.9,53.0,30.03,North,352,0.0,8.5,37,0.00,,,0.00,VWS V14.00,2013-07-29 21:34:00,
2013-07-29 17:40:00,83.0,50.9,30.03,NNW,336,0.0,8.5,33,0.00,,,0.00,VWS V14.00,2013-07-29 21:40:00,
2013-07-29 17:50:00,80.9,51.2,30.03,NNW,338,3.5,8.5,36,0.00,,,0.00,VWS V14.00,2013-07-29 21:50:00,
2013-07-29 17:56:00,79.4,50.4,30.03,NW,318,0.0,8.5,36,0.00,,,0.00,VWS V14.00,2013-07-29 21:56:00,
2013-07-29 18:02:00,78.0,49.8,30.03,NNW,338,0.0,8.5,37,0.00,,,0.00,VWS V14.00,2013-07-29 22:02:00,
2013-07-29 18:08:00,77.2,50.1,30.03,NNW,338,0.0,8.5,39,0.00,,,0.00,VWS V14.00,2013-07-29 22:08:00,
2013-07-29 18:15:00,76.4,50.2,30.03,NNW,338,0.0,8.5,40,0.00,,,0.00,VWS V14.00,2013-07-29 22:15:00,
2013-07-29 18:24:00,75.8,50.2,30.03,NNW,338,0.0,8.5,41,0.00,,,0.00,VWS V14.00,2013-07-29 22:24:00,
2013-07-29 18:30:00,75.3,51.0,30.03,NNW,338,0.0,8.5,43,0.00,,,0.00,VWS V14.00,2013-07-29 22:30:00,
2013-07-29 18:36:00,74.8,50.4,30.03,NNW,338,0.0,8.5,42,0.00,,,0.00,VWS V14.00,2013-07-29 22:36:00,
2013-07-29 18:42:00,74.7,50.2,30.03,NNW,342,0.0,8.5,42,0.00,,,0.00,VWS V14.00,2013-07-29 22:42:00,
2013-07-29 18:48:00,74.3,50.2,30.03,NNW,340,3.4,8.5,43,0.00,,,0.00,VWS V14.00,2013-07-29 22:48:00,
2013-07-29 18:54:00,74.2,50.5,30.03,NNW,338,2.7,8.5,43,0.00,,,0.00,VWS V14.00,2013-07-29 22:54:00,
2013-07-29 19:00:00,73.9,50.0,30.03,NNW,340,3.1,8.5,43,0.00,,,0.00,VWS V14.00,2013-07-29 23:00:00,
2013-07-29 19:07:00,73.6,49.7,30.03,NW,318,0.0,8.5,43,0.00,,,0.00,VWS V14.00,2013-07-29 23:07:00,
2013-07-29 19:13:00,73.3,50.0,30.03,NW,318,0.0,8.5,44,0.00,,,0.00,VWS V14.00,2013-07-29 23:13:00,
2013-07-29 19:26:00,72.7,50.8,30.04,NW,323,0.0,8.5,46,0.00,,,0.00,VWS V14.00,2013-07-29 23:26:00,
2013-07-29 19:32:00,72.6,51.5,30.04,NW,322,0.0,8.5,47,0.00,,,0.00,VWS V14.00,2013-07-29 23:32:00,
2013-07-29 19:38:00,72.3,51.5,30.04,NW,322,0.0,8.5,48,0.00,,,0.00,VWS V14.00,2013-07-29 23:38:00,
2013-07-29 19:44:00,71.9,51.3,30.05,NW,321,0.0,8.5,48,0.00,,,0.00,VWS V14.00,2013-07-29 23:44:00,
2013-07-29 19:51:00,71.6,51.2,30.05,NW,321,0.0,8.5,48,0.00,,,0.00,VWS V14.00,2013-07-29 23:51:00,
2013-07-29 19:57:00,71.4,51.3,30.06,NW,321,0.0,8.5,49,0.00,,,0.00,VWS V14.00,2013-07-29 23:57:00,
2013-07-29 20:03:00,71.0,51.1,30.06,NW,321,0.0,8.5,49,0.00,,,0.00,VWS V14.00,2013-07-30 00:03:00,
2013-07-29 20:09:00,70.8,51.3,30.06,NW,321,0.0,8.5,50,0.00,,,0.00,VWS V14.00,2013-07-30 00:09:00,
2013-07-29 20:15:00,70.6,52.7,30.06,NW,321,0.0,8.5,53,0.00,,,0.00,VWS V14.00,2013-07-30 00:15:00,
2013-07-29 20:21:00,70.4,54.0,30.07,NW,321,0.0,8.5,56,0.00,,,0.00,VWS V14.00,2013-07-30 00:21:00,
2013-07-29 20:27:00,69.9,53.3,30.07,NW,321,0.0,8.5,56,0.00,,,0.00,VWS V14.00,2013-07-30 00:27:00,
2013-07-29 20:33:00,69.5,53.3,30.07,NW,321,0.0,8.5,56,0.00,,,0.00,VWS V14.00,2013-07-30 00:33:00,
2013-07-29 20:39:00,69.1,53.9,30.08,NW,321,0.0,8.5,58,0.00,,,0.00,VWS V14.00,2013-07-30 00:39:00,
2013-07-29 20:48:00,68.4,54.0,30.08,NW,321,0.0,8.5,60,0.00,,,0.00,VWS V14.00,2013-07-30 00:48:00,
2013-07-29 20:55:00,68.0,53.6,30.08,NW,321,0.0,8.5,60,0.00,,,0.00,VWS V14.00,2013-07-30 00:55:00,
2013-07-29 21:07:00,67.5,54.6,30.08,NW,321,0.0,8.5,63,0.00,,,0.00,VWS V14.00,2013-07-30 01:07:00,
2013-07-29 21:13:00,67.3,54.8,30.08,NW,321,0.0,8.5,64,0.00,,,0.00,VWS V14.00,2013-07-30 01:13:00,
2013-07-29 21:19:00,67.0,54.7,30.08,NW,321,0.0,8.5,64,0.00,,,0.00,VWS V14.00,2013-07-30 01:19:00,
2013-07-29 21:25:00,66.5,54.5,30.09,SE,143,2.7,8.5,65,0.00,,,0.00,VWS V14.00,2013-07-30 01:25:00,
2013-07-29 21:31:00,66.2,54.9,30.09,SE,132,0.0,8.5,67,0.00,,,0.00,VWS V14.00,2013-07-30 01:31:00,
2013-07-29 21:37:00,66.0,54.7,30.08,SSE,149,0.0,8.5,67,0.00,,,0.00,VWS V14.00,2013-07-30 01:37:00,
2013-07-29 21:43:00,65.8,54.6,30.09,SSE,149,0.0,8.5,67,0.00,,,0.00,VWS V14.00,2013-07-30 01:43:00,
2013-07-29 21:49:00,65.7,54.6,30.09,SSE,149,0.0,8.5,67,0.00,,,0.00,VWS V14.00,2013-07-30 01:49:00,
2013-07-29 21:55:00,65.2,54.6,30.09,South,176,0.0,8.5,69,0.00,,,0.00,VWS V14.00,2013-07-30 01:55:00,
2013-07-29 22:05:00,65.0,54.7,30.09,South,176,0.0,8.5,69,0.00,,,0.00,VWS V14.00,2013-07-30 02:05:00,
2013-07-29 22:11:00,65.0,54.8,30.09,SSE,160,2.9,8.5,70,0.00,,,0.00,VWS V14.00,2013-07-30 02:11:00,
2013-07-29 22:17:00,64.8,54.9,30.09,SE,142,0.0,8.5,70,0.00,,,0.00,VWS V14.00,2013-07-30 02:17:00,
2013-07-29 22:23:00,64.7,55.2,30.09,SE,142,0.0,8.5,71,0.00,,,0.00,VWS V14.00,2013-07-30 02:23:00,
2013-07-29 22:29:00,64.4,55.2,30.09,SE,142,0.0,8.5,72,0.00,,,0.00,VWS V14.00,2013-07-30 02:29:00,
2013-07-29 22:35:00,64.2,55.2,30.09,SE,142,0.0,8.5,72,0.00,,,0.00,VWS V14.00,2013-07-30 02:35:00,
2013-07-29 22:41:00,64.0,55.0,30.09,SE,142,0.0,8.5,73,0.00,,,0.00,VWS V14.00,2013-07-30 02:41:00,
2013-07-29 22:48:00,63.7,54.8,30.09,SE,142,0.0,8.5,73,0.00,,,0.00,VWS V14.00,2013-07-30 02:48:00,
2013-07-29 22:54:00,63.5,54.9,30.09,SE,142,0.0,8.5,74,0.00,,,0.00,VWS V14.00,2013-07-30 02:54:00,
2013-07-29 23:00:00,63.4,55.0,30.09,SE,142,0.0,8.5,74,0.00,,,0.00,VWS V14.00,2013-07-30 03:00:00,
2013-07-29 23:06:00,63.1,54.9,30.09,SE,142,0.0,8.5,75,0.00,,,0.00,VWS V14.00,2013-07-30 03:06:00,
2013-07-29 23:19:00,62.6,54.9,30.09,SE,142,0.0,8.5,76,0.00,,,0.00,VWS V14.00,2013-07-30 03:19:00,
2013-07-29 23:26:00,62.5,55.0,30.09,SE,142,0.0,8.5,76,0.00,,,0.00,VWS V14.00,2013-07-30 03:26:00,
2013-07-29 23:32:00,62.3,54.9,30.09,SE,142,0.0,8.5,77,0.00,,,0.00,VWS V14.00,2013-07-30 03:32:00,
2013-07-29 23:38:00,62.3,54.9,30.09,SE,142,0.0,0.0,77,0.00,,,0.00,VWS V14.00,2013-07-30 03:38:00,
2013-07-29 23:40:00,68.4,65.0,29.99,SE,135,0.0,13.9,89,0.00,,,0.00,VWS V14.00,2013-07-30 03:40:00,
2013-07-29 23:43:00,62.2,55.0,30.09,SE,142,0.0,0.0,77,0.00,,,0.00,VWS V14.00,2013-07-30 03:43:00,
2013-07-29 23:50:00,68.3,65.2,29.99,SSE,160,0.0,2.9,90,0.00,,,0.00,VWS V14.00,2013-07-30 03:50:00,
2013-07-29 23:54:00,61.8,54.9,30.09,SE,142,0.0,0.0,78,0.00,,,0.00,VWS V14.00,2013-07-30 03:54:00,